Погода в Осорно

Чили     40°34′22″S   73°08′38″W
темп.,
°C
ветер,
м/с
пор.,
м/с
влажн.,
%
обл.,
%
осадки,
мм/ч
давл.,
гПа
погр.,
м
18 апреля, вс
вс1823:00+8с118430 0.0 101510
02:00+8всв1189100 0.0 101414
05:00+11св1484100 0.0 1013132
08:00+10св1488100 0.0 1013117
11:00+12ссв2891100 1.3 1013356
14:00+14с31082100 1.9 1012731
17:00+12ссв2995100 1.8 1011394
20:00+13ссв2897100 2.1 1011366
19 апреля, пн
пн1923:00+14ссв31096100 0.1 1010492
02:00+14ссв3119397 0.2 1008629
05:00+16ссв41385100 0.1 10061222
08:00+14ссв41294100 5.1 1005721
11:00+15ссз2997100 14.2 1006696
14:00+11ю2698100 23.6 1009335
17:00+10ююв2897100 9.4 1011489
20:00+9ююз1399100 18.4 1012194
20 апреля, вт
вт2023:00+10юз0299100 7.9 1012132
02:00+9ю2698100 15.5 1011365
05:00+8ююз2897100 3.8 1010448
08:00+9ююз2898100 10.4 1010622
11:00+9ю1598100 2.6 1011428
14:00+11ссв1394100 5.6 1010354
17:00+11ююз0198100 0.9 101044
20:00+10вюв1199100 1.6 101221
21 апреля, ср
ср2123:00+10в0099100 0.8 101427
02:00+9св2599100 0.9 1014141
05:00+10ссв2995100 0.0 1016405
08:00+11ссв399594 0.1 1018410
11:00+13сз248690 1.6 1019590
14:00+14з237527 2.6 1019908
17:00+13зюз2473100 0.2 1020435
20:00+7сз119762 0.2 102110
22 апреля, чт
чт2223:00+7сз00988 0.1 102111
02:00+5ююз009814 0.1 102011
05:00+5ююз0099100 0.0 101913
08:00+5зсз009997 0.0 101920
11:00+11всв1178100 0.0 1017389
14:00+13св126392 0.0 1015770
17:00+13юв117081 0.0 101443
20:00+7зюз009477 0.0 101610